Find Local Weather

World > North America > United States > Colorado

Craig, Colorado Regional Weather

Lat: 40.52N, Lon: 107.55W
Wx Zone: COZ002
Warning FLW WEATHER ALERT - (More Info. Click Here) Warning
Feedback

Craig, CO Regional Weather

Expires:201905271200;;540777
ASUS45 KBOU 271110
RWRCO 

WEATHER ROUNDUP FOR COLORADO
NATIONAL WEATHER SERVICE DENVER/BOULDER CO
500 AM MDT MON MAY 27 2019

NOTE: "FAIR" INDICATES FEW OR NO CLOUDS BELOW 12000 FEET WITH NO
SIGNIFICANT WEATHER AND/OR OBSTRUCTIONS TO VISIBILITY.


COZ001>005-013-030-031-271200-
...NORTHWEST COLORADO...
  
CITY           SKY/WX    TMP DP  RH WIND       PRES   REMARKS
CRAIG          FAIR      41  37  86 SW3       29.84S                  
HAYDEN         FAIR      44  34  67 E12       29.87S                  
MEEKER         MOCLDY    47  34  60 NE3       29.87R                  
RANGELY        PTSUNNY   58  29  32 S14G23    29.81R                  
RABBIT EARS PA NOT AVBL                                               
STEAMBOAT SPGS FAIR      37  33  85 NW3       29.89S                  
WALDEN         NOT AVBL                                               
$$


SKY/WX - Weather  TMP - Temperature  DP - Dew Point  RH - Relative Humidity
WIND - Wind Direction/Speed PRES - Barometric Pressure VSB - Visibility
WCI - Wind Chill Index E13G22 Wind - East Wind 13 mph/Gusts of 22 mph